HKE231 ZBAD-VHHH

Flight info

Callsign HKE231
Flight time 2h 52m
Altitude 38100
Route OMDEK8M OMDEK W37 GUSIV/K0839S1130 W37 PEXID/K0848S1160 W37 OMBEB/K0835S1130 R473 NNX/K0846S1160 R473 WYN W18 NLG W23 ZUH/K0837S1130 R473 SIERA/N0451F371
Aircraft A20N/M-SDE2E3FGHIRWXY/LB1

Departure

Time 2026-04-18 02:26
Airport Beijing Daxing International Airport (ZBAD)

Arrival

Time 2026-04-18 05:18
Airport Hong Kong International Airport (VHHH)
Time Latitude Longitude Altitude Speed Heading
2026-04-18 02:10 39.51124 116.40371 108 ft 0 kts 57°
2026-04-18 02:20 39.51123 116.40368 108 ft 2 kts 57°
2026-04-18 02:20 39.51110 116.40340 79 ft 4 kts 58°
2026-04-18 02:20 39.51096 116.40310 116 ft 4 kts 60°
2026-04-18 02:20 39.51083 116.40280 107 ft 4 kts 64°
2026-04-18 02:21 39.51071 116.40248 107 ft 4 kts 66°
2026-04-18 02:21 39.51060 116.40216 105 ft 4 kts 65°
2026-04-18 02:21 39.51047 116.40186 106 ft 4 kts 38°
2026-04-18 02:21 39.51037 116.40179 106 ft 1 kts 354°
2026-04-18 02:23 39.51043 116.40178 106 ft 4 kts 353°
2026-04-18 02:23 39.51094 116.40167 108 ft 10 kts 348°
2026-04-18 02:24 39.51128 116.40097 107 ft 11 kts 266°
2026-04-18 02:24 39.51115 116.39983 107 ft 14 kts 262°
2026-04-18 02:24 39.51101 116.39846 106 ft 17 kts 263°
2026-04-18 02:24 39.51046 116.39744 105 ft 14 kts 193°
2026-04-18 02:25 39.50901 116.39754 107 ft 43 kts 174°
2026-04-18 02:25 39.50363 116.39838 109 ft 109 kts 173°
2026-04-18 02:25 39.49429 116.39986 104 ft 159 kts 172°
2026-04-18 02:25 39.48260 116.40152 555 ft 166 kts 172°
2026-04-18 02:26 39.47094 116.40346 1183 ft 169 kts 172°
2026-04-18 02:26 39.45942 116.40544 1865 ft 170 kts 173°
2026-04-18 02:26 39.44713 116.40746 2370 ft 185 kts 174°
2026-04-18 02:26 39.43383 116.40953 2935 ft 200 kts 176°
2026-04-18 02:27 39.41948 116.41166 3463 ft 217 kts 176°
2026-04-18 02:27 39.40919 116.41321 3780 ft 232 kts 176°
2026-04-18 02:27 39.38676 116.41666 4644 ft 251 kts 175°
2026-04-18 02:27 39.36933 116.41938 5573 ft 255 kts 175°
2026-04-18 02:28 39.35752 116.42124 6148 ft 259 kts 175°
2026-04-18 02:28 39.33943 116.42406 6987 ft 263 kts 175°
2026-04-18 02:28 39.31576 116.42772 8177 ft 265 kts 175°
2026-04-18 02:28 39.30351 116.42961 8761 ft 268 kts 175°
2026-04-18 02:29 39.28489 116.43247 9662 ft 271 kts 174°
2026-04-18 02:29 39.26592 116.43539 10391 ft 280 kts 174°
2026-04-18 02:29 39.24582 116.43848 10663 ft 304 kts 174°
2026-04-18 02:29 39.22397 116.44186 10963 ft 324 kts 174°
2026-04-18 02:30 39.20132 116.44540 11645 ft 330 kts 174°
2026-04-18 02:30 39.17832 116.44900 12386 ft 335 kts 174°
2026-04-18 02:30 39.15486 116.45266 13118 ft 341 kts 175°
2026-04-18 02:30 39.13144 116.45632 13827 ft 346 kts 175°
2026-04-18 02:31 39.10740 116.45998 14452 ft 351 kts 177°
2026-04-18 02:31 39.08285 116.45840 15078 ft 353 kts 193°
2026-04-18 02:31 39.05970 116.44774 15699 ft 355 kts 210°
2026-04-18 02:31 39.03902 116.43021 16330 ft 358 kts 216°
2026-04-18 02:32 39.01846 116.41173 16975 ft 363 kts 216°
2026-04-18 02:32 38.99753 116.39299 17601 ft 367 kts 216°
2026-04-18 02:32 38.97643 116.37416 18229 ft 371 kts 217°
2026-04-18 02:32 38.95495 116.35506 18791 ft 375 kts 216°
2026-04-18 02:33 38.93362 116.33613 19400 ft 377 kts 216°
2026-04-18 02:33 38.91195 116.31693 19981 ft 380 kts 216°
2026-04-18 02:33 38.89009 116.29760 20534 ft 383 kts 216°
2026-04-18 02:33 38.86802 116.27809 21101 ft 386 kts 216°
2026-04-18 02:34 38.84579 116.25846 21657 ft 389 kts 216°
2026-04-18 02:34 38.82330 116.23861 22217 ft 392 kts 216°
2026-04-18 02:34 38.80100 116.21896 22733 ft 395 kts 216°
2026-04-18 02:34 38.77824 116.19895 23300 ft 398 kts 216°
2026-04-18 02:35 38.75527 116.17878 23757 ft 401 kts 216°
2026-04-18 02:35 38.73213 116.15847 24219 ft 404 kts 216°
2026-04-18 02:35 38.70860 116.13785 24653 ft 407 kts 216°
2026-04-18 02:35 38.68546 116.11758 25073 ft 409 kts 216°
2026-04-18 02:36 38.66142 116.09777 25505 ft 413 kts 211°
2026-04-18 02:36 38.63601 116.08171 25911 ft 417 kts 204°
2026-04-18 02:36 38.60877 116.06852 26316 ft 420 kts 202°
2026-04-18 02:36 38.58128 116.05552 26720 ft 422 kts 202°
2026-04-18 02:37 38.55366 116.04239 27118 ft 424 kts 202°
2026-04-18 02:37 38.52584 116.02914 27499 ft 427 kts 202°
2026-04-18 02:37 38.49791 116.01583 27876 ft 429 kts 202°
2026-04-18 02:37 38.46964 116.00236 28236 ft 431 kts 202°
2026-04-18 02:38 38.44142 115.98893 28602 ft 433 kts 202°
2026-04-18 02:38 38.41293 115.97545 28928 ft 436 kts 202°
2026-04-18 02:38 38.38440 115.96202 29256 ft 438 kts 202°
2026-04-18 02:38 38.35562 115.94842 29572 ft 440 kts 202°
2026-04-18 02:39 38.32705 115.93489 29885 ft 443 kts 202°
2026-04-18 02:39 38.29797 115.92155 30183 ft 445 kts 199°
2026-04-18 02:39 38.26780 115.91165 30449 ft 449 kts 193°
2026-04-18 02:39 38.23703 115.90594 30718 ft 452 kts 189°
2026-04-18 02:40 38.20565 115.90115 30997 ft 454 kts 189°
2026-04-18 02:40 38.17414 115.89628 31320 ft 455 kts 189°
2026-04-18 02:40 38.14274 115.89138 31682 ft 454 kts 189°
2026-04-18 02:40 38.11132 115.88646 32041 ft 454 kts 189°
2026-04-18 02:41 38.08029 115.88161 32381 ft 453 kts 189°
2026-04-18 02:41 38.04896 115.87672 32728 ft 453 kts 189°
2026-04-18 02:41 38.01761 115.87183 33061 ft 452 kts 189°
2026-04-18 02:41 37.98645 115.86696 33402 ft 452 kts 189°
2026-04-18 02:42 37.95523 115.86209 33704 ft 451 kts 189°
2026-04-18 02:42 37.92406 115.85724 34002 ft 451 kts 189°
2026-04-18 02:42 37.89292 115.85241 34275 ft 450 kts 189°
2026-04-18 02:42 37.86166 115.84738 34529 ft 450 kts 189°
2026-04-18 02:43 37.83104 115.84233 34770 ft 449 kts 190°
2026-04-18 02:43 37.79997 115.83720 35014 ft 449 kts 190°
2026-04-18 02:43 37.76896 115.83209 35242 ft 449 kts 190°
2026-04-18 02:43 37.73812 115.82603 35464 ft 447 kts 194°
2026-04-18 02:44 37.70803 115.81600 35668 ft 444 kts 201°
2026-04-18 02:44 37.67954 115.80218 35874 ft 442 kts 207°
2026-04-18 02:44 37.65147 115.78590 36078 ft 441 kts 207°
2026-04-18 02:44 37.62351 115.76977 36280 ft 441 kts 207°
2026-04-18 02:45 37.59553 115.75375 36482 ft 441 kts 207°
2026-04-18 02:45 37.56757 115.73780 36669 ft 441 kts 207°
2026-04-18 02:45 37.53989 115.72204 36863 ft 440 kts 207°
2026-04-18 02:45 37.51194 115.70613 37040 ft 440 kts 207°
2026-04-18 02:46 37.48390 115.69019 37216 ft 440 kts 207°
2026-04-18 02:46 37.45625 115.67449 37381 ft 440 kts 207°
2026-04-18 02:46 37.42842 115.65869 37555 ft 439 kts 207°
2026-04-18 02:46 37.40059 115.64258 37709 ft 439 kts 208°
2026-04-18 02:47 37.37304 115.62608 37865 ft 438 kts 208°
2026-04-18 02:47 37.34559 115.60952 38008 ft 438 kts 208°
2026-04-18 02:47 37.31796 115.59291 38078 ft 440 kts 208°
2026-04-18 02:48 37.26258 115.55981 38083 ft 446 kts 208°
2026-04-18 02:48 37.20599 115.52616 38082 ft 451 kts 208°
2026-04-18 02:49 37.14880 115.49224 38082 ft 456 kts 208°
2026-04-18 02:49 37.09142 115.45824 38081 ft 459 kts 208°
2026-04-18 02:50 37.03345 115.42397 38086 ft 461 kts 208°
2026-04-18 02:50 36.97564 115.38986 38085 ft 462 kts 208°
2026-04-18 02:51 36.91722 115.35545 38089 ft 462 kts 208°
2026-04-18 02:51 36.85925 115.32136 38088 ft 462 kts 208°
2026-04-18 02:52 36.80091 115.28709 38087 ft 462 kts 208°
2026-04-18 02:52 36.74267 115.25293 38089 ft 462 kts 208°
2026-04-18 02:53 36.68456 115.21890 38094 ft 463 kts 208°
2026-04-18 02:53 36.62633 115.18486 38091 ft 463 kts 208°
2026-04-18 02:54 36.56779 115.15066 38094 ft 463 kts 208°
2026-04-18 02:54 36.50966 115.11681 38096 ft 463 kts 207°
2026-04-18 02:55 36.45099 115.08278 38097 ft 464 kts 207°
2026-04-18 02:55 36.39244 115.04976 38098 ft 465 kts 204°
2026-04-18 02:56 36.32990 115.02722 38100 ft 470 kts 193°
2026-04-18 02:56 36.23212 115.01495 38102 ft 473 kts 187°
2026-04-18 02:57 36.16692 115.00835 38103 ft 472 kts 187°
2026-04-18 02:57 36.10123 115.00165 38100 ft 472 kts 187°
2026-04-18 02:58 36.03563 114.99497 38100 ft 472 kts 187°
2026-04-18 02:58 35.97010 114.98830 38109 ft 472 kts 187°
2026-04-18 02:59 35.90476 114.98166 38106 ft 473 kts 187°
2026-04-18 02:59 35.83911 114.97500 38103 ft 473 kts 187°
2026-04-18 03:00 35.77330 114.96833 38107 ft 473 kts 187°
2026-04-18 03:00 35.70803 114.96173 38104 ft 473 kts 187°
2026-04-18 03:01 35.64240 114.95512 38111 ft 473 kts 187°
2026-04-18 03:01 35.57669 114.94850 38113 ft 473 kts 187°
2026-04-18 03:02 35.51096 114.94191 38108 ft 473 kts 187°
2026-04-18 03:02 35.44566 114.93537 38110 ft 473 kts 187°
2026-04-18 03:03 35.37987 114.92877 38109 ft 473 kts 187°
2026-04-18 03:03 35.32529 114.92328 38109 ft 472 kts 187°
2026-04-18 03:04 35.24939 114.91561 38111 ft 472 kts 188°
2026-04-18 03:04 35.19493 114.91015 38116 ft 472 kts 188°
2026-04-18 03:05 35.12963 114.90366 38113 ft 472 kts 187°
2026-04-18 03:05 35.06392 114.89716 38114 ft 472 kts 187°
2026-04-18 03:06 34.99850 114.89070 38113 ft 471 kts 187°
2026-04-18 03:06 34.93297 114.88422 38115 ft 471 kts 188°
2026-04-18 03:07 34.86787 114.87778 38108 ft 471 kts 188°
2026-04-18 03:07 34.80233 114.87129 38114 ft 471 kts 188°
2026-04-18 03:08 34.73700 114.86483 38116 ft 470 kts 188°
2026-04-18 03:08 34.67167 114.85839 38113 ft 471 kts 188°
2026-04-18 03:09 34.60622 114.85196 38113 ft 470 kts 188°
2026-04-18 03:09 34.54134 114.84560 38106 ft 470 kts 188°
2026-04-18 03:10 34.47600 114.83915 38106 ft 470 kts 188°
2026-04-18 03:10 34.41104 114.83278 38107 ft 470 kts 188°
2026-04-18 03:11 34.34563 114.82638 38111 ft 469 kts 188°
2026-04-18 03:11 34.28114 114.82012 38117 ft 469 kts 188°
2026-04-18 03:12 34.21599 114.81378 38115 ft 469 kts 188°
2026-04-18 03:12 34.15090 114.80740 38112 ft 468 kts 188°
2026-04-18 03:13 34.08569 114.80113 38117 ft 468 kts 188°
2026-04-18 03:13 34.02111 114.79493 38115 ft 468 kts 188°
2026-04-18 03:14 33.95580 114.78864 38114 ft 467 kts 189°
2026-04-18 03:14 33.89120 114.78241 38115 ft 467 kts 189°
2026-04-18 03:15 33.82629 114.77619 38115 ft 467 kts 189°
2026-04-18 03:15 33.76199 114.76980 38116 ft 466 kts 189°
2026-04-18 03:16 33.69727 114.76330 38112 ft 466 kts 189°
2026-04-18 03:16 33.63269 114.75726 38114 ft 466 kts 189°
2026-04-18 03:17 33.56824 114.75132 38116 ft 465 kts 189°
2026-04-18 03:17 33.50360 114.74462 38111 ft 465 kts 190°
2026-04-18 03:18 33.43895 114.73803 38112 ft 465 kts 189°
2026-04-18 03:18 33.37448 114.73185 38112 ft 465 kts 189°
2026-04-18 03:19 33.31002 114.72563 38108 ft 465 kts 190°
2026-04-18 03:19 33.24585 114.71944 38108 ft 465 kts 190°
2026-04-18 03:20 33.18127 114.71319 38109 ft 464 kts 190°
2026-04-18 03:20 33.11679 114.70684 38108 ft 464 kts 190°
2026-04-18 03:21 33.05265 114.70054 38108 ft 464 kts 190°
2026-04-18 03:21 32.98832 114.69421 38112 ft 465 kts 190°
2026-04-18 03:22 32.92365 114.68783 38111 ft 465 kts 190°
2026-04-18 03:22 32.85951 114.68157 38109 ft 464 kts 190°
2026-04-18 03:23 32.79501 114.67552 38113 ft 465 kts 190°
2026-04-18 03:23 32.73041 114.66946 38109 ft 464 kts 190°
2026-04-18 03:24 32.66581 114.66338 38108 ft 464 kts 190°
2026-04-18 03:24 32.60163 114.65731 38109 ft 464 kts 190°
2026-04-18 03:25 32.53711 114.65123 38103 ft 464 kts 191°
2026-04-18 03:25 32.47281 114.64518 38104 ft 464 kts 191°
2026-04-18 03:26 32.40829 114.63914 38098 ft 464 kts 191°
2026-04-18 03:26 32.34418 114.63303 38100 ft 464 kts 191°
2026-04-18 03:27 32.27978 114.62671 38103 ft 464 kts 191°
2026-04-18 03:27 32.21532 114.62041 38108 ft 465 kts 191°
2026-04-18 03:28 32.15133 114.61418 38105 ft 464 kts 191°
2026-04-18 03:28 32.08689 114.60794 38103 ft 465 kts 191°
2026-04-18 03:29 32.02244 114.60171 38103 ft 465 kts 191°
2026-04-18 03:29 31.95766 114.59545 38107 ft 465 kts 192°
2026-04-18 03:30 31.89341 114.58926 38102 ft 466 kts 192°
2026-04-18 03:30 31.82890 114.58306 38105 ft 466 kts 192°
2026-04-18 03:31 31.76462 114.57687 38106 ft 466 kts 192°
2026-04-18 03:31 31.69976 114.57061 38106 ft 466 kts 192°
2026-04-18 03:32 31.63507 114.56438 38107 ft 466 kts 192°
2026-04-18 03:32 31.57070 114.55820 38108 ft 466 kts 192°
2026-04-18 03:33 31.50584 114.55198 38104 ft 467 kts 192°
2026-04-18 03:33 31.44105 114.54579 38108 ft 467 kts 192°
2026-04-18 03:34 31.37601 114.53959 38104 ft 467 kts 192°
2026-04-18 03:34 31.31149 114.53344 38102 ft 468 kts 193°
2026-04-18 03:35 31.24776 114.52250 38106 ft 455 kts 204°
2026-04-18 03:35 31.18933 114.49652 38100 ft 446 kts 212°
2026-04-18 03:36 31.13322 114.46560 38100 ft 445 kts 213°
2026-04-18 03:36 31.07753 114.43441 38099 ft 445 kts 213°
2026-04-18 03:37 31.02146 114.40330 38098 ft 445 kts 213°
2026-04-18 03:37 30.96578 114.37255 38096 ft 444 kts 213°
2026-04-18 03:38 30.91926 114.34688 38094 ft 444 kts 213°
2026-04-18 03:38 30.86275 114.31704 38094 ft 445 kts 212°
2026-04-18 03:39 30.80619 114.28768 38094 ft 444 kts 212°
2026-04-18 03:39 30.75053 114.25767 38091 ft 443 kts 213°
2026-04-18 03:40 30.69468 114.22712 38092 ft 443 kts 213°
2026-04-18 03:40 30.63908 114.19687 38091 ft 442 kts 213°
2026-04-18 03:41 30.58318 114.16658 38093 ft 442 kts 213°
2026-04-18 03:41 30.52780 114.13663 38099 ft 441 kts 213°
2026-04-18 03:42 30.47201 114.10651 38100 ft 440 kts 213°
2026-04-18 03:42 30.41640 114.07651 38098 ft 440 kts 213°
2026-04-18 03:43 30.36113 114.04673 38099 ft 439 kts 213°
2026-04-18 03:43 30.30593 114.01701 38101 ft 439 kts 213°
2026-04-18 03:44 30.25049 113.98720 38099 ft 438 kts 213°
2026-04-18 03:44 30.19523 113.95758 38102 ft 437 kts 213°
2026-04-18 03:45 30.14031 113.92819 38105 ft 437 kts 213°
2026-04-18 03:45 30.08533 113.89881 38102 ft 436 kts 213°
2026-04-18 03:46 30.03017 113.86933 38105 ft 436 kts 213°
2026-04-18 03:46 29.97535 113.84008 38102 ft 435 kts 213°
2026-04-18 03:47 29.92025 113.81097 38100 ft 436 kts 211°
2026-04-18 03:47 29.86162 113.78916 38113 ft 448 kts 202°
2026-04-18 03:48 29.79897 113.77931 38116 ft 460 kts 193°
2026-04-18 03:48 29.73498 113.77519 38107 ft 459 kts 193°
2026-04-18 03:49 29.67145 113.77084 38106 ft 458 kts 193°
2026-04-18 03:49 29.60797 113.76642 38106 ft 457 kts 193°
2026-04-18 03:50 29.54436 113.76199 38108 ft 456 kts 193°
2026-04-18 03:50 29.48091 113.75757 38111 ft 456 kts 193°
2026-04-18 03:51 29.41794 113.75322 38109 ft 455 kts 193°
2026-04-18 03:51 29.35450 113.74883 38112 ft 454 kts 193°
2026-04-18 03:52 29.29143 113.74445 38115 ft 454 kts 193°
2026-04-18 03:52 29.22875 113.74074 38120 ft 457 kts 190°
2026-04-18 03:53 29.16471 113.74252 38117 ft 460 kts 189°
2026-04-18 03:53 29.10072 113.74448 38116 ft 459 kts 189°
2026-04-18 03:54 29.03712 113.74635 38109 ft 459 kts 189°
2026-04-18 03:54 28.97326 113.74821 38115 ft 458 kts 189°
2026-04-18 03:55 28.90951 113.75008 38115 ft 458 kts 189°
2026-04-18 03:55 28.84563 113.75192 38118 ft 457 kts 189°
2026-04-18 03:56 28.78200 113.75373 38119 ft 457 kts 189°
2026-04-18 03:56 28.71902 113.75385 38118 ft 450 kts 194°
2026-04-18 03:57 28.62556 113.74673 38119 ft 450 kts 194°
2026-04-18 03:58 28.56299 113.74211 38122 ft 450 kts 194°
2026-04-18 03:58 28.50069 113.73754 38122 ft 450 kts 194°
2026-04-18 03:59 28.43819 113.73299 38117 ft 449 kts 194°
2026-04-18 03:59 28.37554 113.72853 38113 ft 450 kts 194°
2026-04-18 04:00 28.31763 113.72432 38122 ft 450 kts 194°
2026-04-18 04:00 28.25514 113.71976 38125 ft 450 kts 194°
2026-04-18 04:01 28.19266 113.71522 38126 ft 449 kts 194°
2026-04-18 04:01 28.13050 113.71064 38134 ft 449 kts 194°
2026-04-18 04:02 28.06801 113.70544 38123 ft 448 kts 195°
2026-04-18 04:02 28.00569 113.69976 38121 ft 448 kts 195°
2026-04-18 04:03 27.94382 113.69414 38126 ft 448 kts 195°
2026-04-18 04:03 27.88158 113.68858 38126 ft 448 kts 195°
2026-04-18 04:04 27.81959 113.68304 38125 ft 448 kts 195°
2026-04-18 04:04 27.75733 113.67748 38127 ft 448 kts 195°
2026-04-18 04:05 27.69509 113.67194 38129 ft 447 kts 195°
2026-04-18 04:05 27.63285 113.66692 38129 ft 451 kts 192°
2026-04-18 04:06 27.57023 113.66558 38129 ft 452 kts 192°
2026-04-18 04:06 27.50710 113.66422 38126 ft 451 kts 192°
2026-04-18 04:07 27.44437 113.66282 38125 ft 452 kts 192°
2026-04-18 04:07 27.38177 113.66142 38126 ft 449 kts 192°
2026-04-18 04:08 27.31988 113.66001 38138 ft 451 kts 192°
2026-04-18 04:08 27.25665 113.65864 38133 ft 450 kts 191°
2026-04-18 04:09 27.19386 113.65928 38130 ft 458 kts 186°
2026-04-18 04:09 27.12972 113.67126 38135 ft 473 kts 176°
2026-04-18 04:10 27.06637 113.69029 38130 ft 473 kts 175°
2026-04-18 04:10 27.00263 113.70919 38134 ft 473 kts 175°
2026-04-18 04:11 26.93927 113.72792 38132 ft 472 kts 176°
2026-04-18 04:11 26.87558 113.74665 38132 ft 472 kts 175°
2026-04-18 04:12 26.81208 113.76531 38133 ft 471 kts 175°
2026-04-18 04:12 26.75004 113.78352 38133 ft 471 kts 175°
2026-04-18 04:13 26.69577 113.80004 38132 ft 472 kts 174°
2026-04-18 04:13 26.63249 113.82020 38139 ft 472 kts 174°
2026-04-18 04:14 26.57303 113.83892 38141 ft 471 kts 174°
2026-04-18 04:14 26.51121 113.85821 38138 ft 471 kts 174°
2026-04-18 04:15 26.45050 113.87643 38140 ft 469 kts 176°
2026-04-18 04:15 26.38696 113.89447 38138 ft 467 kts 175°
2026-04-18 04:16 26.32433 113.91242 38143 ft 467 kts 175°
2026-04-18 04:16 26.26748 113.92876 38137 ft 469 kts 175°
2026-04-18 04:17 26.20420 113.94701 38140 ft 469 kts 175°
2026-04-18 04:17 26.14138 113.96511 38140 ft 469 kts 175°
2026-04-18 04:18 26.07848 113.98324 38135 ft 469 kts 175°
2026-04-18 04:18 26.01590 114.00123 38133 ft 470 kts 175°
2026-04-18 04:19 25.95251 114.01994 38131 ft 471 kts 174°
2026-04-18 04:19 25.88912 114.03891 38131 ft 471 kts 174°
2026-04-18 04:20 25.82550 114.05786 38127 ft 471 kts 174°
2026-04-18 04:20 25.76252 114.07655 38125 ft 471 kts 174°
2026-04-18 04:21 25.69885 114.09542 38122 ft 472 kts 174°
2026-04-18 04:21 25.63566 114.11411 38114 ft 472 kts 174°
2026-04-18 04:22 25.57196 114.13294 38118 ft 472 kts 174°
2026-04-18 04:22 25.50874 114.15161 38111 ft 472 kts 174°
2026-04-18 04:23 25.44526 114.17034 38111 ft 472 kts 174°
2026-04-18 04:23 25.38171 114.18904 38110 ft 472 kts 174°
2026-04-18 04:24 25.31858 114.20761 38103 ft 472 kts 174°
2026-04-18 04:24 25.25500 114.22628 38102 ft 472 kts 174°
2026-04-18 04:25 25.19114 114.24504 38102 ft 472 kts 174°
2026-04-18 04:25 25.12748 114.26174 38102 ft 464 kts 180°
2026-04-18 04:26 25.06430 114.26442 38103 ft 450 kts 192°
2026-04-18 04:26 25.00312 114.25338 38105 ft 443 kts 199°
2026-04-18 04:27 24.94244 114.24001 38098 ft 443 kts 199°
2026-04-18 04:27 24.88200 114.22685 38098 ft 444 kts 199°
2026-04-18 04:28 24.82126 114.21364 38098 ft 444 kts 199°
2026-04-18 04:28 24.76094 114.20056 38105 ft 444 kts 198°
2026-04-18 04:29 24.70012 114.18738 38102 ft 444 kts 198°
2026-04-18 04:29 24.63928 114.17420 38091 ft 444 kts 198°
2026-04-18 04:30 24.57843 114.16104 38091 ft 446 kts 198°
2026-04-18 04:30 24.51750 114.14786 38094 ft 445 kts 198°
2026-04-18 04:31 24.45656 114.13466 38088 ft 446 kts 198°
2026-04-18 04:31 24.39585 114.12158 38087 ft 446 kts 198°
2026-04-18 04:32 24.33514 114.10735 38087 ft 443 kts 202°
2026-04-18 04:32 24.27565 114.08907 38089 ft 443 kts 202°
2026-04-18 04:33 24.21612 114.07091 38089 ft 444 kts 202°
2026-04-18 04:33 24.15644 114.05275 38091 ft 444 kts 202°
2026-04-18 04:34 24.09710 114.03470 38087 ft 445 kts 202°
2026-04-18 04:34 24.03686 114.01639 38091 ft 445 kts 202°
2026-04-18 04:35 23.97741 113.99834 38084 ft 445 kts 202°
2026-04-18 04:35 23.92771 113.98328 38087 ft 444 kts 202°
2026-04-18 04:36 23.86807 113.96523 38082 ft 445 kts 202°
2026-04-18 04:36 23.80841 113.94719 38079 ft 444 kts 202°
2026-04-18 04:37 23.74899 113.92925 38076 ft 444 kts 202°
2026-04-18 04:37 23.68982 113.91136 38082 ft 445 kts 202°
2026-04-18 04:38 23.63014 113.89333 38075 ft 445 kts 202°
2026-04-18 04:38 23.57000 113.87522 38070 ft 444 kts 201°
2026-04-18 04:39 23.51063 113.85743 38074 ft 445 kts 201°
2026-04-18 04:39 23.45106 113.83948 38071 ft 444 kts 202°
2026-04-18 04:40 23.39109 113.82136 38067 ft 445 kts 201°
2026-04-18 04:40 23.33174 113.80346 38071 ft 445 kts 201°
2026-04-18 04:41 23.27188 113.78544 38071 ft 445 kts 201°
2026-04-18 04:41 23.21181 113.76737 38071 ft 446 kts 201°
2026-04-18 04:42 23.15231 113.74947 38074 ft 446 kts 201°
2026-04-18 04:42 23.09194 113.73133 38076 ft 446 kts 201°
2026-04-18 04:43 23.03190 113.71331 38068 ft 447 kts 201°
2026-04-18 04:43 22.97182 113.69529 38069 ft 447 kts 201°
2026-04-18 04:44 22.91161 113.67724 38079 ft 448 kts 201°
2026-04-18 04:44 22.88880 113.67041 38080 ft 448 kts 201°
2026-04-18 04:45 22.84968 113.65859 38054 ft 445 kts 201°
2026-04-18 04:45 22.81813 113.64897 37851 ft 437 kts 201°
2026-04-18 04:45 22.79061 113.64059 37601 ft 427 kts 201°
2026-04-18 04:45 22.76228 113.63197 37339 ft 418 kts 202°
2026-04-18 04:46 22.73413 113.62335 37084 ft 424 kts 202°
2026-04-18 04:46 22.70590 113.61467 36841 ft 431 kts 201°
2026-04-18 04:46 22.67676 113.60577 36587 ft 431 kts 201°
2026-04-18 04:46 22.64783 113.59696 36101 ft 432 kts 201°
2026-04-18 04:47 22.61864 113.58807 35239 ft 439 kts 201°
2026-04-18 04:47 22.58918 113.57910 34490 ft 442 kts 201°
2026-04-18 04:47 22.55943 113.57006 33691 ft 444 kts 201°
2026-04-18 04:47 22.52942 113.56094 32884 ft 446 kts 201°
2026-04-18 04:48 22.49961 113.55186 32103 ft 446 kts 201°
2026-04-18 04:48 22.46961 113.54265 31298 ft 447 kts 201°
2026-04-18 04:48 22.43916 113.53328 30463 ft 450 kts 201°
2026-04-18 04:48 22.40913 113.52406 29959 ft 443 kts 201°
2026-04-18 04:49 22.37987 113.51509 29366 ft 438 kts 201°
2026-04-18 04:49 22.35069 113.50616 28776 ft 433 kts 201°
2026-04-18 04:49 22.32181 113.49731 28216 ft 428 kts 201°
2026-04-18 04:49 22.29323 113.48856 27650 ft 423 kts 201°
2026-04-18 04:50 22.26481 113.47986 27076 ft 419 kts 200°
2026-04-18 04:50 22.23617 113.47429 26527 ft 422 kts 189°
2026-04-18 04:50 22.20665 113.47505 25908 ft 428 kts 177°
2026-04-18 04:50 22.17756 113.48249 25363 ft 431 kts 166°
2026-04-18 04:51 22.14913 113.49296 24788 ft 429 kts 166°
2026-04-18 04:51 22.12081 113.50343 24197 ft 427 kts 166°
2026-04-18 04:51 22.09266 113.51380 23607 ft 426 kts 166°
2026-04-18 04:51 22.06490 113.52399 22963 ft 423 kts 166°
2026-04-18 04:52 22.03718 113.53415 22404 ft 418 kts 166°
2026-04-18 04:52 22.00971 113.54420 21826 ft 414 kts 166°
2026-04-18 04:52 21.98261 113.55435 21454 ft 407 kts 163°
2026-04-18 04:52 21.95668 113.56618 21024 ft 401 kts 161°
2026-04-18 04:53 21.93110 113.57802 20522 ft 397 kts 161°
2026-04-18 04:53 21.90577 113.58970 19965 ft 395 kts 161°
2026-04-18 04:53 21.88048 113.60134 19423 ft 393 kts 161°
2026-04-18 04:53 21.85564 113.61277 18906 ft 391 kts 161°
2026-04-18 04:54 21.83059 113.62429 18385 ft 389 kts 161°
2026-04-18 04:54 21.80571 113.63572 17849 ft 386 kts 161°
2026-04-18 04:54 21.78104 113.64704 17325 ft 382 kts 161°
2026-04-18 04:54 21.75662 113.65824 16801 ft 379 kts 161°
2026-04-18 04:55 21.73321 113.67156 16274 ft 382 kts 147°
2026-04-18 04:55 21.71473 113.69161 15763 ft 385 kts 128°
2026-04-18 04:55 21.70281 113.71740 15277 ft 386 kts 108°
2026-04-18 04:56 21.70430 113.77377 14317 ft 379 kts 68°
2026-04-18 04:56 21.71750 113.79797 13872 ft 372 kts 47°
2026-04-18 04:56 21.73705 113.81560 13354 ft 364 kts 28°
2026-04-18 04:56 21.75927 113.82825 12845 ft 360 kts 25°
2026-04-18 04:57 21.78075 113.84137 12698 ft 352 kts 30°
2026-04-18 04:57 21.79472 113.85143 12598 ft 358 kts 33°
2026-04-18 04:57 21.81427 113.86762 12399 ft 359 kts 37°
2026-04-18 04:57 21.83496 113.88256 12147 ft 361 kts 21°
2026-04-18 04:58 21.85878 113.89193 11910 ft 366 kts 22°
2026-04-18 04:58 21.88015 113.90737 11671 ft 367 kts 43°
2026-04-18 04:58 21.89490 113.92922 11441 ft 368 kts 64°
2026-04-18 04:58 21.90184 113.95561 11201 ft 366 kts 86°
2026-04-18 04:59 21.90019 113.98278 10972 ft 362 kts 102°
2026-04-18 04:59 21.89474 114.00922 10740 ft 360 kts 105°
2026-04-18 04:59 21.88899 114.03534 10541 ft 356 kts 105°
2026-04-18 04:59 21.88388 114.06086 10433 ft 345 kts 103°
2026-04-18 05:00 21.87937 114.08580 10319 ft 332 kts 103°
2026-04-18 05:00 21.87534 114.10980 10204 ft 319 kts 102°
2026-04-18 05:00 21.87159 114.13302 9953 ft 312 kts 102°
2026-04-18 05:00 21.86803 114.15545 9798 ft 303 kts 101°
2026-04-18 05:01 21.86442 114.17806 9656 ft 306 kts 102°
2026-04-18 05:01 21.86192 114.20085 9529 ft 307 kts 91°
2026-04-18 05:01 21.86537 114.22353 9403 ft 308 kts 72°
2026-04-18 05:01 21.87368 114.24480 9289 ft 308 kts 67°
2026-04-18 05:02 21.88215 114.26565 9163 ft 306 kts 67°
2026-04-18 05:02 21.88501 114.27275 9121 ft 306 kts 67°
2026-04-18 05:02 21.89141 114.28868 9025 ft 305 kts 67°
2026-04-18 05:03 21.89982 114.30970 8897 ft 305 kts 67°
2026-04-18 05:03 21.90814 114.33056 8778 ft 304 kts 67°
2026-04-18 05:03 21.91636 114.35119 8654 ft 303 kts 68°
2026-04-18 05:03 21.92468 114.37205 8530 ft 302 kts 67°
2026-04-18 05:04 21.93301 114.39295 8406 ft 302 kts 67°
2026-04-18 05:04 21.94119 114.41307 8282 ft 300 kts 63°
2026-04-18 05:04 21.95389 114.43030 8162 ft 299 kts 37°
2026-04-18 05:04 21.97236 114.44021 8047 ft 297 kts 11°
2026-04-18 05:05 21.99279 114.44081 7930 ft 293 kts 349°
2026-04-18 05:05 22.01281 114.43638 7803 ft 292 kts 344°
2026-04-18 05:05 22.03247 114.43109 7688 ft 291 kts 343°
2026-04-18 05:05 22.05222 114.42604 7561 ft 290 kts 345°
2026-04-18 05:06 22.07179 114.42149 7448 ft 289 kts 346°
2026-04-18 05:06 22.09166 114.41721 7327 ft 289 kts 347°
2026-04-18 05:06 22.11137 114.41314 7206 ft 288 kts 347°
2026-04-18 05:06 22.13102 114.40916 7090 ft 287 kts 347°
2026-04-18 05:07 22.15032 114.40526 6885 ft 288 kts 347°
2026-04-18 05:07 22.17048 114.40118 6537 ft 288 kts 348°
2026-04-18 05:07 22.19007 114.39687 6178 ft 286 kts 343°
2026-04-18 05:07 22.20880 114.39015 5880 ft 280 kts 339°
2026-04-18 05:08 22.22729 114.38329 5757 ft 278 kts 339°
2026-04-18 05:08 22.24544 114.37658 5590 ft 277 kts 339°
2026-04-18 05:08 22.26365 114.36988 5436 ft 275 kts 339°
2026-04-18 05:08 22.28178 114.36321 5272 ft 274 kts 339°
2026-04-18 05:09 22.29983 114.35655 5116 ft 273 kts 340°
2026-04-18 05:09 22.31780 114.34992 4958 ft 271 kts 340°
2026-04-18 05:09 22.33563 114.34336 4800 ft 270 kts 340°
2026-04-18 05:09 22.35341 114.33681 4644 ft 270 kts 340°
2026-04-18 05:10 22.37140 114.33019 4513 ft 268 kts 340°
2026-04-18 05:10 22.38852 114.32333 4496 ft 254 kts 330°
2026-04-18 05:10 22.40096 114.31102 4494 ft 234 kts 300°
2026-04-18 05:10 22.40583 114.29497 4500 ft 218 kts 280°
2026-04-18 05:11 22.40856 114.27885 4506 ft 226 kts 280°
2026-04-18 05:11 22.41097 114.26207 4468 ft 225 kts 271°
2026-04-18 05:11 22.40795 114.24564 4353 ft 223 kts 250°
2026-04-18 05:11 22.40280 114.23022 4343 ft 220 kts 251°
2026-04-18 05:12 22.39779 114.21470 4264 ft 211 kts 251°
2026-04-18 05:12 22.39298 114.19962 4169 ft 201 kts 251°
2026-04-18 05:12 22.38838 114.18521 4114 ft 189 kts 251°
2026-04-18 05:12 22.38413 114.17187 4180 ft 190 kts 251°
2026-04-18 05:13 22.37981 114.15838 4177 ft 190 kts 251°
2026-04-18 05:13 22.37549 114.14471 4052 ft 193 kts 251°
2026-04-18 05:13 22.37114 114.13080 3794 ft 191 kts 251°
2026-04-18 05:13 22.36661 114.11729 3490 ft 190 kts 250°
2026-04-18 05:14 22.36230 114.10390 3236 ft 186 kts 251°
2026-04-18 05:14 22.35804 114.09060 2983 ft 185 kts 250°
2026-04-18 05:14 22.35379 114.07733 2737 ft 187 kts 250°
2026-04-18 05:14 22.34955 114.06412 2480 ft 180 kts 250°
2026-04-18 05:15 22.34677 114.05542 2334 ft 183 kts 250°
2026-04-18 05:15 22.34258 114.04235 2104 ft 185 kts 250°
2026-04-18 05:15 22.33844 114.02941 1848 ft 172 kts 249°
2026-04-18 05:15 22.33467 114.01769 1644 ft 158 kts 249°
2026-04-18 05:16 22.33113 114.00662 1437 ft 141 kts 249°
2026-04-18 05:16 22.32806 113.99711 1260 ft 144 kts 249°
2026-04-18 05:16 22.32496 113.98741 1080 ft 145 kts 249°
2026-04-18 05:16 22.32176 113.97744 898 ft 133 kts 250°
2026-04-18 05:17 22.31874 113.96803 738 ft 130 kts 251°
2026-04-18 05:17 22.31576 113.95867 554 ft 131 kts 253°
2026-04-18 05:17 22.31288 113.94930 392 ft 132 kts 253°
2026-04-18 05:17 22.30969 113.93946 218 ft 132 kts 253°
2026-04-18 05:18 22.30648 113.93010 44 ft 129 kts 253°
2026-04-18 05:18 22.30391 113.92175 39 ft 77 kts 251°
2026-04-18 05:18 22.30272 113.91812 36 ft 45 kts 251°
2026-04-18 05:18 22.30180 113.91529 38 ft 33 kts 250°
2026-04-18 05:19 22.30116 113.91309 37 ft 23 kts 259°
2026-04-18 05:19 22.30117 113.91138 37 ft 24 kts 280°
2026-04-18 05:19 22.30167 113.91031 37 ft 15 kts 341°
2026-04-18 05:19 22.30220 113.91077 36 ft 14 kts 65°
2026-04-18 05:20 22.30252 113.91179 35 ft 18 kts 70°
2026-04-18 05:20 22.30297 113.91320 36 ft 21 kts 71°
2026-04-18 05:20 22.30349 113.91483 36 ft 24 kts 71°
2026-04-18 05:20 22.30413 113.91678 35 ft 23 kts 69°
2026-04-18 05:21 22.30450 113.91754 37 ft 15 kts 31°
2026-04-18 05:21 22.30600 113.91723 37 ft 15 kts 340°
2026-04-18 05:21 22.30644 113.91724 37 ft 5 kts 34°
2026-04-18 05:21 22.30659 113.91757 35 ft 5 kts 71°
2026-04-18 05:22 22.30668 113.91786 37 ft 4 kts 71°
2026-04-18 05:22 22.30673 113.91801 37 ft 0 kts 70°
2026-04-18 05:22 22.30674 113.91802 37 ft 0 kts 70°